User: anonymous   Login
Location: Caltech
(34.1382°N, 118.1253°W)
Time: 23:00:59
(UTC-08:00)
Language:

NOSS 3-4 (C) - Orbit

View from above orbital plane
View from above orbital plane
View from above satellite
View from above satellite

Ground track
Ground track

The orbit data is extracted from the following two-line orbital elements,

1 31708U 07027C   14350.76603103 0.00000000  00000-0  00000-0 0    07
2 31708  63.4030 251.3606 0114000  37.1086 322.8914 13.40663594    01
Epoch (UTC): 16 December 2014 18:23:05
Eccentricity: 0.0114000
inclination: 63.4030°
perigee height: 1021 km
apogee height: 1192 km
right ascension of ascending node: 251.3606°
argument of perigee: 37.1086°
revolutions per day: 13.40663594
mean anomaly at epoch: 322.8914°
orbit number at epoch: 0

The dashed part of the orbit path shows where the satellite is in the earth's shadow,  

DLR